Location: La Fredeussais
(48.1780°N, 1.3980°W)
Time: 11:52:30
(UTC+00:00)

PRISM - Pass Details

Date: 30 October 2021
Orbit: 561 x 584 km, 98.2° (Epoch: 29 November)

Event Time Altitude Azimuth Distance (km) Brightness Sun altitude
Rises 05:27:05 0° 359° (N) 2,797 ? -13.9°
Reaches altitude 10° 05:29:52 10° 339° (NNW) 1,888 ? -13.5°
Enters shadow 05:32:03 17° 307° (NW) 1,505 ? -13.1°
